Other Public Products
Issued by NWS Charleston, SC

Current Version | Previous Version | Graphics & Text | Print | Product List | Glossary On
Versions: 1 2 3 4 5 6 7 8 9 10 11 12 13 14 15 16 17 18 19 20 21 22 23 24 25 26 27 28 29 30 31 32 33 34 35 36 37 38 39 40 41 42 43 44 45 46 47 48 49 50
459
FPUS82 KCHS 230012
OPUCHS

TEST...KCHS/KSAV Gateway Observations...TEST
National Weather Service Charleston SC
800 PM EDT TUE MAY 22 2018

NOTE: "fair" indicates few or no clouds below 12,000 feet with no
significant weather and/or obstructions to visibility.

SCZ050-WAZ558-NCZ071-TXZ119-213-PAZ071-DCZ001-FLZ074-172-MI076-
NYZ176-178-MAZ016-IL014-TNZ027-NJZ106-GAZ044-MD014-230100-

...Gateway Observations for Charleston International...

CITY           SKY/WX    TMP DP  RH WIND       PRES   REMARKS
Chas Airport   FAIR      77  68  73 S12       30.09R
6HR MIN TEMP:  77; 6HR MAX TEMP:  83; 6HR PCP: TRACE;

Seattle        MOSUNNY   77  50  38 N9        29.85F
6HR MIN TEMP:  66; 6HR MAX TEMP:  79;

Charlotte      MOCLDY    78  66  66 SW6       30.06S
6HR MIN TEMP:  78; 6HR MAX TEMP:  86;

Dallas DFW     PTSUNNY   86  64  47 S12       29.91S
6HR MIN TEMP:  83; 6HR MAX TEMP:  89;

Dallas Love    MOSUNNY   88  67  49 S10       29.92S HX  91
6HR MIN TEMP:  84; 6HR MAX TEMP:  90;

Philladelphia  CLOUDY    63  59  87 E5        30.00F
6HR MIN TEMP:  60; 6HR MAX TEMP:  64; 6HR PCP:  0.22;

Wash National  MOCLDY    69  66  90 S8        29.98S
6HR MIN TEMP:  69; 6HR MAX TEMP:  80; 6HR PCP:  1.19;

Baltimore      CLOUDY    67  66  97 E6        29.96F
6HR MIN TEMP:  66; 6HR MAX TEMP:  72; 6HR PCP:  0.03;

Miami          MOCLDY    79  71  76 E14       30.05R
6HR MIN TEMP:  79; 6HR MAX TEMP:  84;

Detroit        CLOUDY    65  55  70 N12       29.99R
6HR MIN TEMP:  65; 6HR MAX TEMP:  77; 6HR PCP:  0.05;

Newark         CLOUDY    60  56  86 E3        30.00F
6HR MIN TEMP:  58; 6HR MAX TEMP:  66; 6HR PCP:  0.19;

Laguardia      CLOUDY    57  54  89 NE7       30.00F
6HR MIN TEMP:  56; 6HR MAX TEMP:  65; 6HR PCP:  0.21;

J F K          LGT RAIN  58  57  97 E6        30.02F
6HR MIN TEMP:  58; 6HR MAX TEMP:  62; 6HR PCP:  0.16;

Boston Logan   LGT RAIN  58  48  69 SW10      30.02F
6HR MIN TEMP:  57; 6HR MAX TEMP:  61; 6HR PCP:  0.01;

Ft. Lauderdale MOCLDY    79  73  82 E13       30.04R
6HR MIN TEMP:  79; 6HR MAX TEMP:  82;

Chicago O`Hare FAIR      65  54  67 E5        30.04S
6HR MIN TEMP:  61; 6HR MAX TEMP:  66;

Chicago Midway PTSUNNY   60  53  77 E7        30.04F
6HR MIN TEMP:  60; 6HR MAX TEMP:  65;

Houston Bush   PTSUNNY   78  74  87 E6        29.93S
6HR MIN TEMP:  77; 6HR MAX TEMP:  90; 6HR PCP:  0.16;

Houston Hobby  PTSUNNY   82  72  71 S8        29.92S
6HR MIN TEMP:  75; 6HR MAX TEMP:  85; 6HR PCP:  0.55;

Nashville      TSTM      70  65  84 E9        30.03F
6HR MIN TEMP:  70; 6HR MAX TEMP:  86; 6HR PCP:  0.39;

Atlanta        CLOUDY    74  67  78 S8        30.05R THUNDER
6HR MIN TEMP:  71; 6HR MAX TEMP:  84; 6HR PCP:  0.06;


$$

GAZ044-118-TXZ119-213-NCZ071-DCZ001-MDZ014-506-PAZ021-071-NJZ106-
NYZ176-178-MAZ106-OHZ011-021-055-MIZ076-KYZ091-ILZ014-INZ047-
MNZ060-ONZ431-230100-

...Gateway Observations for Savannah International...

CITY           SKY/WX    TMP DP  RH WIND       PRES   REMARKS
Savannah Arpt  MOCLDY    77  71  82 SE12      30.07R
6HR MIN TEMP:  76; 6HR MAX TEMP:  82; 6HR PCP: TRACE;

Atlanta        CLOUDY    74  67  78 S8        30.05R THUNDER
6HR MIN TEMP:  71; 6HR MAX TEMP:  84; 6HR PCP:  0.06;

Charlotte      MOCLDY    78  66  66 SW6       30.06S
6HR MIN TEMP:  78; 6HR MAX TEMP:  86;

Dallas DFW     PTSUNNY   86  64  47 S12       29.91S
6HR MIN TEMP:  83; 6HR MAX TEMP:  89;

Houston Bush   PTSUNNY   78  74  87 E6        29.93S
6HR MIN TEMP:  77; 6HR MAX TEMP:  90; 6HR PCP:  0.16;

Wash National  MOCLDY    69  66  90 S8        29.98S
6HR MIN TEMP:  69; 6HR MAX TEMP:  80; 6HR PCP:  1.19;

Wash Dulles    MOCLDY    71  70  96 S5        29.97F
6HR MIN TEMP:  69; 6HR MAX TEMP:  80; 6HR PCP:  0.57;

Baltimore      CLOUDY    67  66  97 E6        29.96F
6HR MIN TEMP:  66; 6HR MAX TEMP:  72; 6HR PCP:  0.03;

Philadelphia   CLOUDY    63  59  87 E5        30.00F
6HR MIN TEMP:  60; 6HR MAX TEMP:  64; 6HR PCP:  0.22;

Newark         CLOUDY    60  56  86 E3        30.00F
6HR MIN TEMP:  58; 6HR MAX TEMP:  66; 6HR PCP:  0.19;

Laguardia      CLOUDY    57  54  89 NE7       30.00F
6HR MIN TEMP:  56; 6HR MAX TEMP:  65; 6HR PCP:  0.21;

J F K          LGT RAIN  58  57  97 E6        30.02F
6HR MIN TEMP:  58; 6HR MAX TEMP:  62; 6HR PCP:  0.16;

Boston         LGT RAIN  58  48  69 SW10      30.02F
6HR MIN TEMP:  57; 6HR MAX TEMP:  61; 6HR PCP:  0.01;

Pittsburg      MOCLDY    63  61  93 SW7       29.95R
6HR MIN TEMP:  63; 6HR MAX TEMP:  78; 6HR PCP:  0.18;

Akron          FAIR      70  64  81 W3        29.95R
6HR MIN TEMP:  66; 6HR MAX TEMP:  81; 6HR PCP:  0.05;

Cleveland      MOCLDY    67  63  87 N15       29.96R FOG
6HR MIN TEMP:  66; 6HR MAX TEMP:  74; 6HR PCP:  0.24;

Cincinnati     FAIR      76  66  71 SE8       29.96F
6HR MIN TEMP:  75; 6HR MAX TEMP:  83; 6HR PCP: TRACE;

Columbus       LGT RAIN  69  69  98 MISG      29.95R
Detroit        CLOUDY    65  55  70 N12       29.99R
6HR MIN TEMP:  65; 6HR MAX TEMP:  77; 6HR PCP:  0.05;

Chicago O`Hare FAIR      65  54  67 E5        30.04S
6HR MIN TEMP:  61; 6HR MAX TEMP:  66;

Minneapolis    FAIR      74  58  57 SE8       30.02S
6HR MIN TEMP:  69; 6HR MAX TEMP:  76;

Indianapolis   FAIR      79  58  48 N8        29.98R
6HR MIN TEMP:  77; 6HR MAX TEMP:  85;

Toronto Canada CLOUDY    59  55  88 S3        29.91S

$$




USA.gov is the U.S. government's official web portal to all federal, state and local government web resources and services.